Regional Weather Roundup
Issued by NWS Charleston, SC

Current Version | Previous Version | Graphics & Text | Print | Product List | Glossary On
Versions: 1 2 3 4 5 6 7 8 9 10 11 12 13 14 15 16 17 18 19 20 21 22 23 24 25 26 27 28 29 30 31 32 33 34 35 36 37 38 39 40 41 42 43 44 45 46 47 48 49 50
000 ASUS42 KCHS 231227 RWRCHS Regional Weather Roundup National Weather Service Charleston SC 700 AM EST FRI FEB 23 2018 NOTE: "fair" indicates few or no clouds below 12,000 feet with no significant weather and/or obstructions to visibility. Not all stations are quality controlled. Use data with caution, especially dewpoint observations. SCZ027-030-031-034>040-042>050-231300- ...Southeast South Carolina... CITY SKY/WX TMP DP RH WIND PRES REMARKS N Charleston FAIR 57 57 100 CALM 30.43R 6HR MIN TEMP: 57; 6HR MAX TEMP: 64; Waterfront Prk N/A 62 62 100 CALM 30.28R Mount Pleasant CLOUDY 57 57 100 CALM 30.44R Johns Island FAIR 59 59 100 CALM 30.44R FOG Pinopolis N/A 59 59 100 CALM 30.35R Moncks Corner CLOUDY 52 52 100 CALM 30.45R FOG Summerville FOG 54 54 100 CALM 30.45R VSB 1/4 Beaufort MCAS FOG 59 59 100 CALM 30.43R VSB<1/4 6HR MIN TEMP: 57; 6HR MAX TEMP: 63; Beaufort Arpt FOG 59 59 100 NE5 30.43R VSB<1/4 Hilton Head Is CLEAR 59 59 100 CALM 30.43R Walterboro FOG 54 54 100 CALM 30.45R VSB<1/4 Allendale FOG 54 54 100 CALM 30.44R VSB 1 ...Southern Midlands and Pee Dee... CITY SKY/WX TMP DP RH WIND PRES REMARKS Georgetown FOG 54 52 94 CALM 30.46R VSB<1/4 Kingstree FOG 50 50 100 CALM 30.45S VSB 1/4 Orangeburg CLOUDY 54 53 97 CALM 30.45R 6HR MIN TEMP: 54; 6HR MAX TEMP: 61; Barnwell FOG 55 55 100 CALM 30.45R VSB 1/4 Aiken FOG 54 54 100 CALM 30.48R VSB 1/4 Manning HAZE 54 41 62 MISG 30.45S VSB 1/2 Columbia MOCLDY 55 55 100 CALM 30.44R FOG 6HR MIN TEMP: 56; 6HR MAX TEMP: 65; Sumter FOG 54 53 99 CALM 30.42S VSB 1/8 6HR MIN TEMP: 52; 6HR MAX TEMP: 60; Florence FOG 53 53 100 CALM 30.45R VSB 1/4 6HR MIN TEMP: 53; 6HR MAX TEMP: 61; Myrtle Beach FOG 57 57 100 CALM 30.46R VSB 1/4 N Myrtle Beach FOG 58 58 100 CALM 30.46R VSB 1/2 6HR MIN TEMP: 57; 6HR MAX TEMP: 63; 6HR PCP: 0.01; $$ GAZ063-065-086>088-099>101-113>116-118-119-134>141-150-231300- ...Southeast Georgia... CITY SKY/WX TMP DP RH WIND PRES REMARKS Savannah Arpt FOG 57 57 100 CALM 30.42R VSB 1/4 6HR MIN TEMP: 56; 6HR MAX TEMP: 61; Hunter AAF FOG 59 57 94 CALM 30.40R VSB 1/4 6HR MIN TEMP: 57; 6HR MAX TEMP: 63; Fort Stewart FOG 55 55 100 CALM 30.40R VSB 1 6HR MIN TEMP: 56; 6HR MAX TEMP: 58; Statesboro FOG 58 32 37 CALM 30.44R VSB<1/4 Sylvania FOG 56 56 100 CALM 30.44R VSB 1/4 Claxton FOG 57 56 99 CALM 30.43R VSB 1/4 ...CSRA, Central and far Southeast Georgia... CITY SKY/WX TMP DP RH WIND PRES REMARKS Thomson FOG 56 55 97 CALM 30.48R VSB 1 Augusta-Bush FOG 59 59 100 CALM 30.43R VSB 1/4 6HR MIN TEMP: 54; 6HR MAX TEMP: 61; Augusta-Daniel FOG 63 62 97 SE3 30.44R VSB 1/2 Swainsboro FOG 61 61 100 CALM 30.44R VSB<1/4 Vidalia FOG 59 59 100 CALM 30.43R VSB<1/4 Eastman HAZE 58 52 80 CALM 30.44S VSB 1/4 Hazlehurst FOG 60 60 99 CALM 30.41R VSB 1/4 Alma FOG 56 56 100 CALM 30.40R VSB 1/4 6HR MIN TEMP: 56; 6HR MAX TEMP: 61; Waycross FOG 57 54 90 CALM 30.41R VSB 1/2 Jesup FOG 57 54 88 CALM 30.42R VSB 1/4 Baxley FOG 55 55 100 CALM 30.41R VSB<1/4 Brunswick FOG 55 54 94 CALM 30.42R VSB<1/4 Saint Simons FAIR 62 62 100 CALM 30.40R FOG 6HR MIN TEMP: 61; 6HR MAX TEMP: 65; $$ SCZ027-028-034-036>038-045-046-048>050-GAZ119-141-231300- ...Lake and Supplemental Coastal Observations... STATION/POSITION TIME TEMP WIND PRES WAVE SWELL AIR SEA DIR/SP/G HT/PER HT/PER/DIR (UTC) (F) (DEG/KT/KT) (MB) (FT/S) (FT/S/D) Winyah Bay 1145 60 340/ 1 1031.0R Lake Murray 1220 60 110/ 2/ 3 1030.1 ACE Basin NERRS 1145 59 CALM 1030.0S Fort Pulaski 1200 63 62 60/ 3/ 3 1030.5 Sapelo Island 1200 57 90/ 2 1030.0 $$ ANZ835-935-AMZ111-154-330-350-352-354-370-450-454-472-231300- ...C-MAN and Buoy Observations... STATION/POSITION TIME TEMP WIND PRES WAVE SWELL AIR SEA DIR/SP/G HT/PER HT/PER/DIR (UTC) (F) (DEG/KT/KT) (MB) (FT/S) (FT/S/D) Buoy 41004 1200 69 68 90/ 2/ 4 1030.2 Buoy 41008 1150 63 58 50/ 4/ 6 1029.5R 3/10 3/110/10 Folly Beach CMAN 1200 63 30/ 3/ 3 1031.0R Capers Nearshore 1108 58 60 50/ 4/ 6 1029.8R Fripp Nearshore 1108 59 61 90/ 4/ 6 1029.2R STATION/POSITION TIME TEMP WIND PRES WAVE SWELL AIR SEA DIR/SP/G HT/PER HT/PER/DIR (UTC) (F) (DEG/KT/KT) (MB) (FT/S) (FT/S/D) 5E St. Marys GA 1200 63 N/A 3/ 9 2/ 90/15 Frying Pan Buoy 1200 71 70 180/ 2/ 4 1031.0 Buoy 41025 1200 57 74 360/ 17/ 21 1032.6 Cape Lookout NC 1200 30/ 9/ 10 1032.2R Buoy 41002 1150 71 72 100/ 10/ 12 1031.6S 5/ 9 5/120/ 9 Buoy 41010 NOT AVBL St Augustine FL 1200 68 67 80/ 4/ 5 1029.0R $$

USA.gov is the U.S. government's official web portal to all federal, state and local government web resources and services.